Content
SEND FEEDBACK

Daily
Averages
Monthly
Summary
United States of America

YIGO, GUAM


Home > North America > United States > Guam
Elevation: 162 meters     Latitude: 13 32N     Longitude: 144 53E

WEATHER
 
SELECT A DAY
Number of Records: 209,340;   Date Range: 1/1/95 - 9/20/14
 
SHARE

PRINT THIS DATA

[ ← Previous Day ]
WEATHER ALMANAC - 15 MARCH, 2013
[ Next Day → ]
[ °F ]   °C
Weather ElementAverageHighLow
Temperature28 °C31.7 °C (1:54 pm)25 °C (3:54 am)
Dewpoint21.3 °C22.2 °C (5:54 pm)20 °C (3:54 pm)
Humidity67.7 %79 % (3:54 am)53 % (12:54 pm)
Barometer1012.2 hPa1014.2 hPa (9:54 pm)1010.5 hPa (3:54 pm)
Wind Speed14.8 km/h22.2 km/h (6:54 pm)
Weather ElementAverage
Visibility16.1 km
Wind DirectionENE (64.8 °)

Weather ElementTotal
Precipitation---
Cooling Degree Days10.1 (Base 18.3)
Growing Degree Days18.4 (Base 10)
Averaged from 23 records on 15 March, 2013
WEATHER CONDITIONS BREAKOUT
WIND DIRECTION BREAKOUT
WEATHER BY HOUR - 15 MARCH, 2013
[ °F ]   °C
Local TimeTemperatureDewpointHumidityBarometerVisibilityWind DirectionWind SpeedGust SpeedPrecipitationEventsConditions
1:54 AM25.6 °C20.6 °C74 %1012.2 hPa16.1 kmENE (60°)9.3 km/hClear
2:54 AM25.6 °C20.6 °C74 %1011.5 hPa16.1 kmENE (60°)9.3 km/hClear
3:54 AM25 °C21.1 °C79 %1011.2 hPa16.1 kmNE (50°)11.1 km/hScattered Clouds
4:54 AM25 °C21.1 °C79 %1011.2 hPa16.1 kmNE (50°)11.1 km/hClear
5:54 AM25.6 °C21.1 °C76 %1011.9 hPa16.1 kmENE (60°)7.4 km/hClear
6:54 AM26.7 °C21.1 °C71 %1012.2 hPa16.1 kmENE (70°)11.1 km/hClear
7:54 AM27.8 °C21.7 °C69 %1013.2 hPa16.1 kmEast (80°)13 km/hPartly Cloudy
8:54 AM28.3 °C21.1 °C65 %1013.9 hPa16.1 kmEast (80°)16.7 km/hPartly Cloudy
9:54 AM29.4 °C20.6 °C59 %1013.9 hPa16.1 kmENE (60°)16.7 km/hPartly Cloudy
10:54 AM29.4 °C20.6 °C59 %1013.2 hPa16.1 kmEast (90°)11.1 km/hClear
11:54 AM31.1 °C21.7 °C57 %1012.2 hPa16.1 kmESE (110°)14.8 km/hPartly Cloudy
12:54 PM31.1 °C20.6 °C53 %1011.9 hPa16.1 kmEast (90°)16.7 km/hClear
1:54 PM31.7 °C21.7 °C55 %1010.8 hPa16.1 kmEast (100°)18.5 km/hPartly Cloudy
2:54 PM30.6 °C21.1 °C57 %1010.8 hPa16.1 kmEast (90°)18.5 km/hMostly Cloudy
3:54 PM30.6 °C20 °C53 %1010.5 hPa16.1 kmNE (50°)16.7 km/hMostly Cloudy
4:54 PM30 °C21.1 °C59 %1010.8 hPa16.1 kmNE (50°)18.5 km/hScattered Clouds
5:54 PM28.9 °C22.2 °C67 %1011.5 hPa16.1 kmNE (40°)20.4 km/hScattered Clouds
6:54 PM27.8 °C22.2 °C71 %1012.2 hPa16.1 kmNE (50°)22.2 km/hScattered Clouds
7:54 PM27.2 °C22.2 °C74 %1012.9 hPa16.1 kmNE (40°)20.4 km/hScattered Clouds
8:54 PM26.7 °C22.2 °C76 %1013.5 hPa16.1 kmNE (40°)14.8 km/hScattered Clouds
9:54 PM26.1 °C22.2 °C79 %1014.2 hPa16.1 kmNE (50°)14.8 km/hPartly Cloudy
10:54 PM26.7 °C22.2 °C76 %1014.2 hPa16.1 kmENE (60°)13 km/hPartly Cloudy
11:54 PM26.7 °C21.7 °C74 %1014.2 hPa16.1 kmENE (60°)13 km/hPartly Cloudy
Hourly data recorded from PGUM, located 0 kilometers away from Yigo, Guam







STORIES FROM OUR PARTNERS